Regional Weather Roundup
Issued by NWS

Home | Current Version | Previous Version | Graphics & Text | Print | Product List | Glossary On
Versions: 1 2 3 4 5 6 7 8 9 10 11 12 13 14 15 16 17 18 19 20 21 22 23 24 25 26 27 28 29 30 31 32 33 34 35 36 37 38 39 40 41 42 43 44 45 46 47 48 49 50
000
ASUS44 KMEG 281410
RWRTN
TENNESSEE HOURLY STATE WEATHER ROUNDUP
NATIONAL WEATHER SERVICE MEMPHIS TN
900 AM CDT THU AUG 28 2014

TNZ002-004-019-021-049-052-054-088>092-281500-
WEST TENNESSEE

CITY           SKY/WX    TMP DP  RH WIND       PRES   REMARKS
MEMPHIS INTL   MOSUNNY   84  65  52 CALM      30.04R
NWS MEMPHIS      N/A     84 N/A N/A MISG        N/A
JACKSON        SUNNY     81  74  79 CALM      30.04F
DYERSBURG      MOSUNNY   81  70  69 CALM      30.05S
UNION CITY     SUNNY     81  73  78 CALM      30.03S
PARIS          SUNNY     81  72  74 CALM      30.05S
HUNTINGDON     SUNNY     80  71  74 CALM      30.04F
LEXINGTON      SUNNY     79  73  83 CALM      30.04F
SAVANNAH       SUNNY     81  73  78 CALM      30.04F
$$

TNZ008-025-027-028-033-062-065-066-281500-
NORTH MIDDLE TENNESSEE

CITY           SKY/WX    TMP DP  RH WIND       PRES   REMARKS
NASHVILLE      SUNNY     81  72  74 CALM      30.07S
DICKSON        SUNNY     81  72  74 CALM      30.06F
PORTLAND       SUNNY     79  73  83 S3        30.05F
CLARKSVILLE    SUNNY     80  73  79 CALM      30.05S HAZE
SMYRNA         MOSUNNY   78  72  82 SE3       30.07F
MURFREESBORO   SUNNY     77  69  76 CALM      30.06S
COOKEVILLE     SUNNY     77  72  83 CALM      30.08F
LIVINGSTON     SUNNY     77  70  79 CALM      30.10S
GALLATIN       SUNNY     79  76  90 CALM      30.07F
CROSSVILLE     MOSUNNY   78  68  71 CALM      30.14R
$$

TNZ061-075-076-078-094-096-097-281500-
SOUTH MIDDLE TENNESSEE

CITY           SKY/WX    TMP DP  RH WIND       PRES   REMARKS
LEWISBURG      SUNNY     76  68  76 CALM      30.06F
FAYETTEVILLE   SUNNY     75  70  83 CALM      30.08S
TULLAHOMA      SUNNY     79  68  69 CALM      30.09F
WINCHESTER     SUNNY     79  70  73 CALM      30.08F
MCMINNVILLE    SUNNY     75  75 100 CALM      30.09S
COLUMBIA         N/A     79  75  89 CALM      30.05F
SHELBYVILLE    SUNNY     79  72  78 CALM      30.08F
$$

TNZ017-018-042-046-047-281500-
NORTHEAST TENNESSEE

CITY           SKY/WX    TMP DP  RH WIND       PRES   REMARKS
TRI CITIES     MOSUNNY   72  62  71 CALM      30.12S
ELIZABETHTON   SUNNY     72  63  73 CALM      30.12S
$$

TNZ012-013-036-069-073-074-281500-
CENTRAL EAST TENNESSEE

CITY           SKY/WX    TMP DP  RH WIND       PRES   REMARKS
KNOXVILLE      LGT RAIN  74  65  73 SW3       30.08S
OAK RIDGE      SUNNY     76  67  73 CALM      30.10S
GATLINBURG     SUNNY     75  63  64 CALM      30.09S
MORRISTOWN     SUNNY     75  66  73 CALM      30.11S
$$

TNZ083-085-099-281500-
SOUTHEAST TENNESSEE

CITY           SKY/WX    TMP DP  RH WIND       PRES   REMARKS
CHATTANOOGA    MOSUNNY   76  65  68 CALM      30.08F
$$

SKY/WX REPORTED AS FAIR MEANS FEW OR NO CLOUDS BELOW
12 THOUSAND FEET.




USA.gov is the U.S. government's official web portal to all federal, state and local government web resources and services.